Terug naar catalogus

SL-16 DEB

ActiefLEO
NORAD 22496·DEBRIS·🇷🇺 Russia

Gelanceerd Dec 25, 1992 vanaf Baikonur Cosmodrome

Loading…

Volgende Passages (komende 24 uur)

TLE

VersSource: Space-Track

Epoch: Sep 14, 2026, 12:12 UTC

1 22496U 92093GF  26257.50840015  .00000052  00000-0  65601-4 0  9990
2 22496  71.2130 266.6600 0091780 258.5548 264.5480 13.97916490715301

Volg SL-16 DEB in realtime met AllMySat

Download on the App Store